This is the latest recevied weather packets stored in our database for station/object SP4FDH-13. If no packets are shown the sender has not sent any weather packets the latest 10 day(s).
| Time | Temp. | Humidity | Pressure | Rain* | Wind** | Luminosity | Snow |
|---|---|---|---|---|---|---|---|
| 1777734006 | 27.22° C | 21% | 1015.7 hPa | - | - | - | - |
| 1777733431 | 27.22° C | 21% | 1015.7 hPa | - | - | - | - |
| 1777732856 | 27.22° C | 20% | 1015.8 hPa | - | - | - | - |
| 1777732281 | 27.22° C | 20% | 1015.8 hPa | - | - | - | - |
| 1777731706 | 27.22° C | 19% | 1015.8 hPa | - | - | - | - |
| 1777731131 | 27.78° C | 21% | 1016.1 hPa | - | - | - | - |
| 1777730556 | 27.78° C | 20% | 1016.2 hPa | - | - | - | - |
| 1777729981 | 27.78° C | 21% | 1016.2 hPa | - | - | - | - |
| 1777729406 | 28.33° C | 20% | 1016.2 hPa | - | - | - | - |
| 1777728831 | 28.89° C | 19% | 1016.2 hPa | - | - | - | - |
| 1777728257 | 29.44° C | 19% | 1016.4 hPa | - | - | - | - |
| 1777727683 | 30° C | 19% | 1016.6 hPa | - | - | - | - |
| 1777727109 | 30.56° C | 19% | 1016.8 hPa | - | - | - | - |
| 1777726534 | 31.11° C | 16% | 1016.5 hPa | - | - | - | - |
| 1777725958 | 31.11° C | 16% | 1016.7 hPa | - | - | - | - |
| 1777725383 | 31.67° C | 17% | 1017 hPa | - | - | - | - |
| 1777724807 | 31.11° C | 18% | 1017.2 hPa | - | - | - | - |
| 1777724231 | 31.67° C | 18% | 1017.4 hPa | - | - | - | - |
| 1777723655 | 31.11° C | 18% | 1017.4 hPa | - | - | - | - |
| 1777723078 | 31.67° C | 19% | 1017.8 hPa | - | - | - | - |
| 1777722501 | 31.11° C | 19% | 1017.8 hPa | - | - | - | - |
| 1777721924 | 31.11° C | 19% | 1017.9 hPa | - | - | - | - |
| 1777721348 | 30.56° C | 19% | 1017.9 hPa | - | - | - | - |
| 1777720771 | 30.56° C | 20% | 1018.2 hPa | - | - | - | - |
| 1777720194 | 30° C | 20% | 1018.1 hPa | - | - | - | - |
* Rain since midnight (hover to see other rain measurements)
** Current wind speed in m/s (hover to see current wind gust speed)